DELTA 1 DEB, 10208

Orbit data source: Space-Track

DELTA 1 DEB, 10208 is space debris in LEO originally from a launch on Thu, 14 Jul 1977 UTC launched from the Air Force Eastern Test Range (AFETR). Debris objects in space refer to the collection of defunct objects orbiting the Earth. Examples of debris include non-operational satellites, rocket bodies, and fragments generated from explosions, collisions, or faulty payload assembly.

Loading next visibility...
Identifier
10208, 1977-065AM
Orbit
LEO
Last TLE update
5 hours ago
Origin
Manufacturer
Unknown
Mission
Spacecraft
Bus & Motor
Unknown
Mass
Unknown
Launch date (UTC)
1977-07-14 (48 years ago)
Launch vehicle
Unknown
Launch site
Air Force Eastern Test Range (AFETR)
Object type
Payload
Rocket body
Debris
Shape & HBR
Unknown
Radar Cross Section
Small (<0.1 m²)

Expand to show TLE details & history

TLE from 5 hours ago
0 DELTA 1 DEB
1 10208U 77065AM  25182.15588751  .00013192  00000-0  17203-2 0  9995
2 10208  28.9361 344.5157 0346471 149.5409 212.5790 14.45210280394322
Epoch: 2025-07-01T03:44Z
TLE epoch observation values (Epoch: 2025-07-01T03:44:28.68Z)
Latitude
0.00001°
Longitude
8.94083°
Altitude
949.865 km
Speed
7.27 km/s
True Right ascension
22h 58m 03s
True Declination
0° 00' 00"
Sunlit
Object was in daylight at epoch
Visualization orbit readout
Latitude
-18.77071°
Longitude
-29.94656°
Altitude
983.919 km
Speed
7.236 km/s
Apparent Right ascension
20h 54m 45s
Apparent Declination
-71° 52' 33"
Sunlit
Object is in full shadow
Visualization observer readout
Local Sidereal Time
20:08:42
Azimuth
176.157° S
Elevation
-22.089°
Doppler factor
1
Orbital elements
Apogee altitude
992.171 km
Perigee altitude
498.554 km
Semi-major axis
7,123.5 km
Eccentricity
0.03465
Inclination
28.9361°
RAAN
344.5157°
Arg. of periapsis
149.5409°
True anomaly
Unknown
Mean anomaly
212.579°
Eccentric anomaly
Unknown
Mean motion
3.60997 °/min
Orbital period
99.72 mins
BSTAR
0.0017203
Loading maneuver chart data...
Loading SW <> Apogee altitude chart data...
Loading historical data...
Loading historical data...
Loading historical data...
Loading historical data...
Loading historical data...
Loading historical data...
Loading historical data...

DELTA 1 DEB Visibility forecast

Observer location: undefined°, undefined°

Span
Click to sort rows by Start time (UTC) header in descending order
Start Az.
Max El. time (UTC)
Max El. Az.
Max El.
End time (UTC)
End Az.
5 mins2025-07-01 15:39:34.150Z196.895° SSW2025-07-01 15:41:34.150Z167.29° S18.059°2025-07-01 15:44:34.150Z127.597° SE
4 mins2025-07-01 17:24:34.150Z214.696° SW2025-07-01 17:26:34.150Z181.537° SSW18.76°2025-07-01 17:28:34.150Z148.9° SSE
|